Location: Chervonnoye
(48.6000°N, 34.4000°E)
Time: 19:49:40
(UTC+00:00)

SL-16 R/B - Pass Details

Date: 23 November 2020
Orbit: 842 x 846 km, 71.0° (Epoch: 27 January)

Event Time Altitude Azimuth Distance (km) Brightness Sun altitude
Rises 14:30:04 0° 246° (WSW) 3,393 8.3 -6.1°
Reaches altitude 10° 14:32:54 10° 259° (WSW) 2,462 6.3 -6.5°
Maximum altitude 14:37:36 26° 315° (NW) 1,598 3.9 -7.2°
Drops below altitude 10° 14:42:19 10° 12° (NNE) 2,474 4.3 -7.9°
Sets 14:45:12 0° 25° (NNE) 3,413 4.9 -8.4°
